Regional Weather Roundup
Issued by NWS Huntsville, AL

Home | Current Version | Previous Version | Text Only | Print | Product List | Glossary On
Versions: 1 2 3 4 5 6 7 8 9 10 11 12 13 14 15 16 17 18 19 20 21 22 23 24 25 26 27 28 29 30 31 32 33 34 35 36 37 38 39 40 41 42 43 44 45 46 47 48 49 50
000
ASUS44 KHUN 171410
RWRHUN

WEATHER ROUNDUP FOR THE TENNESSEE VALLEY
NATIONAL WEATHER SERVICE HUNTSVILLE AL
900 AM CDT WED SEP 17 2014

ALZ001>004-171500-
NORTHWEST ALABAMA

CITY           SKY/WX    TMP DP  RH WIND       PRES   REMARKS
COURTLAND HCN    N/A     68 N/A N/A CALM        N/A
RUSSELLVILLE     N/A     66 N/A N/A MISG        N/A
SHOALS AIRPORT SUNNY     70  58  65 CALM      30.03S
SHOALS TVA RES   N/A     66 N/A N/A MISG        N/A
$$

ALZ005>007-016-171500-
NORTH CENTRAL ALABAMA

CITY           SKY/WX    TMP DP  RH WIND       PRES   REMARKS
CULLMAN AG STN   N/A     66 N/A N/A CALM        N/A
DECATUR AP     SUNNY     70  59  68 N5        30.02S
HUNTSVILLE AP  MOSUNNY   72  59  63 VRB3      30.01S
HUN NWS/UAH      N/A     71  57  62 NW2         N/A
MERIDIANVILLE  SUNNY     68  55  64 CALM      30.01F
REDSTONE ARSN  SUNNY     70  61  73 CALM      30.02F
VINEMONT AP      N/A     64  63  96 CALM      30.03F FOG
$$

ALZ008>010-171500-
NORTHEAST ALABAMA

CITY           SKY/WX    TMP DP  RH WIND       PRES   REMARKS
ALBERTVILLE    SUNNY     70  64  83 NE5       30.00S
FORT PAYNE     SUNNY     68  59  73 CALM      29.99F
SCOTTSBORO AP  MOSUNNY   70  63  78 CALM      30.00F
SCOTTSBORO HCN   N/A     68 N/A N/A MISG        N/A
VALLEY HEAD      N/A     66 N/A N/A MISG        N/A
$$

TNZ076-096-097-171500-
SOUTHEASTERN MIDDLE TENNESSEE

CITY           SKY/WX    TMP DP  RH WIND       PRES   REMARKS
FAYETTEVILLE   SUNNY     64  57  77 N3        30.02S
TULLAHOMA      CLOUDY    61  57  88 NE3       30.04S
WINCHESTER     CLOUDY    63  61  94 NW3       30.02S
$$

...SURROUNDING SITES...

CITY           SKY/WX    TMP DP  RH WIND       PRES   REMARKS
ATLANTA        MOSUNNY   74  62  66 N9        30.00S
ANNISTON       SUNNY     74  67  78 E3        30.00S
BIRMINGHAM     MOSUNNY   74  64  71 NE6       30.03R
CHATTANOOGA    MOSUNNY   69  58  67 N8        30.01S
CORINTH        FAIR      66  59  77 CALM      30.02
DALTON         SUNNY     66  63  88 NW5       29.99F
GADSDEN        MOSUNNY   72  61  68 CALM      30.00S
GOLDEN TRNGL   CLOUDY    68  63  83 CALM      30.02R FOG
HALEYVILLE     FAIR      67  62  84 CALM      30.05S
JACKSON TN     MOSUNNY   62  57  83 E5        30.03F
LEWISBURG      CLOUDY    55  55 100 CALM      30.03F VSB 1/4
MEMPHIS        PTSUNNY   68  59  73 E6        30.02S
NASHVILLE      CLOUDY    58  56  93 NE5       30.04S FOG
OXFORD MS      FAIR      66  59  77 E8        30.04R
ROME           SUNNY     71  61  70 CALM      29.99F
SAVANNAH       SUNNY     63  63 100 N3        30.03S
TUPELO         SUNNY     69  60  73 E8        30.02R
TUSCALOOSA     SUNNY     76  65  68 N5        30.00S
$$

...GULF COAST WEATHER...

CITY           SKY/WX    TMP DP  RH WIND       PRES   REMARKS
GULFPORT       PTSUNNY   76  71  85 N3        29.98R
PASCAGOULA     PTSUNNY   76  72  87 VRB3      29.98R
MOBILE         PTSUNNY   78  72  81 N5        29.98S
GULF SHORES    CLOUDY    75  71  86 CALM      29.97S
PENSACOLA      PTSUNNY   78  73  84 VRB5      29.96R
DESTIN         MOSUNNY   78  72  81 N5        29.97R
PANAMA CITY    PTSUNNY   75  75  99 E3        29.97R
APPALACHICOLA  CLOUDY    80  71  74 NE7       29.96R
$$



USA.gov is the U.S. government's official web portal to all federal, state and local government web resources and services.